Temperature
24 23 22 21 21 22 24 28 29 29 29 29 29 28 27 26 25 23 23 23 23 23 22 21 21 21 21 21 21 21 21 21 21 21 21 21 20 20 20 20 20 20 20 20 21 21 21 21 20
25 24 23 22 22 23 25 28 28 29 29 29 29 28 27 24 23 23 22 23 24 24 22 21 21 21 21 21 21 21 21 21 21 21 21 21 21 21 21 20 20 21 21 21 21 21 21 21 21
25 24 23 22 23 24 25 27 28 29 29 30 29 28 27 24 23 23 23 23 24 24 23 22 21 21 21 21 21 21 21 21 21 21 21 21 21 21 21 21 21 21 21 21 21 21 21 21 21
26 25 24 22 24 25 26 27 28 28 29 29 28 27 26 25 25 25 24 23 24 24 23 22 21 21 21 21 21 21 21 21 21 21 21 21 21 21 20 20 20 20 20 20 20 20 20 20 20
26 25 23 23 25 26 27 28 28 28 28 28 27 26 25 26 26 25 24 24 24 24 23 22 22 21 21 21 21 21 21 21 21 21 21 20 20 20 20 20 20 20 20 20 20 20 20 20 20
26 23 23 23 25 27 27 28 28 27 27 27 26 25 24 25 26 25 24 24 25 24 23 22 22 22 21 21 21 21 21 21 21 20 20 20 20 20 20 20 20 20 20 20 20 20 20 20 20
26 23 24 25 25 26 28 28 28 26 27 27 27 25 23 23 25 25 25 25 25 24 24 23 22 22 21 21 21 21 21 21 20 20 20 20 20 20 20 20 20 19 19 20 20 20 20 20 20
28 23 25 25 26 26 28 28 28 27 27 27 27 25 24 23 24 24 24 24 24 24 24 23 23 22 21 21 21 21 21 21 20 20 20 20 20 20 20 19 19 19 19 19 19 20 20 20 20
28 23 23 25 27 27 28 28 28 27 27 26 27 27 27 25 24 24 24 24 24 24 24 24 23 22 22 21 21 21 21 21 20 20 20 20 20 20 20 19 19 18 19 19 19 19 19 19 19
26 22 24 26 28 28 29 29 28 26 25 25 26 27 27 26 25 24 23 24 24 24 24 24 23 23 22 22 21 21 21 21 21 20 20 20 20 20 19 19 18 18 18 18 18 18 18 19 19
26 25 26 28 30 30 29 29 29 26 25 25 26 27 27 27 25 25 24 24 24 24 23 23 23 23 22 22 21 21 21 21 20 20 20 20 19 19 19 19 18 18 18 18 18 18 18 18 18
27 26 28 29 31 30 30 30 29 28 28 29 29 29 28 27 26 25 25 24 23 23 23 23 23 22 22 22 21 21 20 20 20 20 20 19 19 19 18 18 18 18 18 18 18 18 18 18 18
26 27 29 30 30 31 31 30 29 29 30 28 28 28 28 27 26 26 25 24 23 22 21 21 21 21 21 21 21 20 20 20 20 20 19 19 19 19 18 18 18 18 18 18 18 18 18 18 18
26 27 27 29 30 31 29 29 29 29 29 27 26 27 27 27 26 25 24 23 22 21 20 20 20 19 20 20 20 20 20 19 19 19 19 19 19 18 18 18 18 18 18 18 18 17 17 17 17
27 25 25 27 28 29 29 27 27 29 27 25 25 25 25 24 24 23 23 22 21 20 20 20 19 19 19 19 19 19 19 19 19 19 19 19 19 18 18 18 18 18 18 17 17 17 17 17 17
25 24 24 25 26 28 28 26 27 28 26 24 24 24 23 23 22 22 22 21 21 20 20 19 19 19 19 19 19 19 19 19 19 19 19 19 19 19 19 18 18 18 17 17 17 17 17 17 17
23 23 24 26 27 27 26 25 26 26 25 23 22 22 21 20 20 20 21 21 20 20 20 19 19 19 19 19 19 19 19 19 19 19 19 19 19 19 19 18 18 18 17 17 17 17 17 17 16
23 24 25 25 27 27 26 25 24 23 22 20 19 19 18 18 19 19 20 20 20 20 20 20 19 18 18 18 18 18 19 19 19 19 19 19 19 19 19 19 18 18 18 17 17 17 16 16 16
26 26 26 27 27 26 24 22 21 20 19 18 17 17 17 17 17 18 18 19 19 20 20 19 18 18 18 17 17 18 18 18 18 19 19 19 19 19 19 19 19 18 18 18 17 17 16 16 16
27 26 26 26 27 26 23 20 19 19 17 17 16 15 15 15 16 17 17 18 18 19 19 19 18 18 18 17 18 18 18 18 18 19 19 19 19 19 19 19 19 19 18 18 17 17 16 16 16
27 26 26 26 25 24 24 20 19 18 17 16 15 15 14 14 15 16 16 17 17 17 17 17 17 17 17 17 17 18 18 18 18 18 19 19 19 19 19 19 19 19 19 18 18 17 17 16 16
25 27 27 26 24 21 23 20 18 17 16 16 15 15 14 14 15 15 16 16 16 16 16 16 16 16 16 16 17 17 18 18 18 18 18 18 18 18 18 18 18 18 18 18 18 17 17 16 16
27 27 26 25 23 21 20 20 18 17 16 15 15 15 15 15 15 15 16 16 16 16 16 16 16 16 16 16 16 17 17 17 18 18 18 18 18 18 18 18 18 18 18 18 18 18 17 17 16
26 25 23 20 19 20 20 19 17 16 16 15 15 15 15 15 16 16 16 16 16 16 16 16 16 16 16 16 16 16 16 16 17 17 17 17 17 17 17 17 17 17 17 17 17 17 17 17 16
25 21 19 20 18 19 19 18 16 16 16 16 15 15 15 16 16 16 16 16 16 16 16 16 16 15 15 15 15 15 15 15 15 15 15 16 16 16 16 16 16 16 16 17 17 17 17 16 16
25 21 20 20 20 19 18 17 16 17 16 16 16 16 16 16 16 16 16 16 16 16 16 16 15 15 15 15 14 14 14 14 14 14 14 14 14 14 14 15 15 15 16 16 16 16 16 16 16
24 22 21 19 20 18 18 17 16 16 16 16 16 16 16 16 16 16 16 16 16 15 15 15 15 15 14 14 14 14 13 13 13 13 13 12 13 13 13 13 14 14 15 15 15 15 15 15 15
23 22 19 19 19 19 19 17 16 16 16 16 16 16 16 16 16 16 16 16 16 15 15 15 14 14 14 13 13 13 13 12 12 12 12 12 12 12 12 12 12 13 13 14 14 14 14 15 15
22 21 19 17 18 18 18 17 17 16 15 15 15 16 17 17 17 16 16 16 16 15 15 14 14 13 13 13 13 12 12 12 12 11 11 11 11 11 11 11 11 12 12 12 13 13 13 14 14
22 21 19 18 18 17 16 16 17 16 16 16 16 17 17 16 16 16 15 15 14 14 14 14 13 13 13 12 12 12 12 11 11 11 11 11 10 10 10 10 10 11 11 12 12 12 13 13 13
Wind_Speed
6 7 4 2 1 2 4 4 3 6 6 7 10 10 8 5 4 4 6 19 21 20 19 23 23 23 22 21 21 20 19 19 19 18 18 17 17 16 16 16 16 15 14 13 13 12 11 11 10
4 5 3 1 3 3 5 4 6 6 6 9 9 8 7 6 7 10 8 18 23 20 19 21 24 23 23 22 21 20 19 19 18 18 17 17 16 16 16 15 14 14 13 13 12 12 11 10 9
3 4 3 2 2 1 5 6 6 4 1 4 5 5 5 7 10 7 10 20 19 16 18 22 26 24 23 22 21 20 20 19 18 18 17 16 16 15 15 15 14 13 12 12 11 11 10 9 8
2 3 3 3 2 3 2 6 7 6 6 6 7 6 5 6 8 11 19 20 19 15 16 22 25 24 23 22 21 20 20 19 18 17 17 16 15 15 14 14 13 13 12 11 11 10 10 9 8
3 4 4 2 4 4 3 2 5 4 4 4 6 6 4 4 18 22 21 19 18 14 14 21 24 24 23 22 21 20 19 19 18 17 16 15 14 14 13 12 12 12 11 11 11 10 10 10 9
3 4 3 2 5 4 4 4 1 5 4 3 5 6 4 11 19 21 20 18 18 18 14 18 24 23 23 22 21 20 19 18 18 17 16 15 14 13 13 13 12 12 12 11 11 11 11 11 11
4 3 3 4 4 4 5 4 5 3 1 1 4 5 5 11 16 19 18 17 16 16 14 12 18 21 22 21 20 20 19 18 18 17 16 15 15 14 14 13 13 13 13 13 13 13 13 13 13
6 3 2 3 4 6 4 4 5 7 3 1 2 7 7 11 15 16 16 16 15 14 15 12 13 15 16 18 20 20 19 19 18 18 17 17 16 15 15 14 14 15 15 15 16 16 16 15 15
3 3 4 5 5 6 5 4 4 7 6 2 2 7 11 17 18 16 14 13 14 15 13 13 12 11 13 14 18 19 20 20 19 18 19 17 14 14 14 15 16 17 18 18 18 17 17 17 17
5 4 9 8 7 6 6 5 8 7 7 4 5 7 16 19 21 20 19 19 18 17 15 13 13 12 12 14 15 14 16 16 17 15 16 15 14 14 14 15 18 20 20 20 20 19 18 17 14
4 7 8 11 10 6 5 5 8 13 7 12 16 18 20 19 19 19 19 20 19 17 16 15 14 13 12 9 9 10 11 12 14 15 16 13 12 11 12 10 12 15 18 16 16 16 14 13 12
5 10 9 9 7 3 5 4 4 11 14 18 21 23 22 18 17 17 16 15 13 14 14 14 14 13 13 9 8 9 8 8 9 14 15 11 6 6 6 5 7 7 8 8 9 7 10 11 13
5 7 9 9 9 6 6 6 5 8 10 16 15 15 17 16 14 12 10 11 12 10 7 8 7 10 12 10 8 9 8 8 10 11 14 13 8 8 6 4 4 5 6 5 4 5 6 7 7
7 10 13 11 10 7 6 8 5 5 9 15 14 14 12 9 6 5 6 8 9 9 6 5 3 2 6 8 9 8 7 7 8 9 13 16 10 6 6 5 4 3 4 5 4 5 6 5 5
7 9 13 11 9 8 6 9 9 6 11 14 13 9 4 5 8 10 11 12 12 10 9 6 3 2 3 4 6 6 5 6 6 7 12 13 11 7 6 4 4 3 4 4 3 3 3 3 4
7 6 8 13 8 10 3 10 13 3 13 11 8 6 6 8 11 11 13 14 12 12 10 9 5 3 4 4 3 3 3 4 4 5 8 11 11 10 5 4 4 3 2 1 1 1 2 2 3
4 5 10 13 8 6 5 6 6 3 11 9 7 8 10 12 14 13 13 12 10 10 10 10 8 6 5 5 4 3 2 2 3 4 5 8 10 10 5 4 3 2 2 1 1 1 1 1 3
8 7 7 7 8 6 4 4 8 10 13 12 11 11 13 12 9 9 10 10 8 7 8 7 4 2 3 3 3 3 2 2 1 3 5 8 8 9 6 4 4 3 2 1 0 1 1 2 3
7 4 5 5 6 9 12 14 17 16 18 16 13 12 11 10 8 8 7 6 6 5 7 5 1 1 0 1 2 2 2 3 2 3 5 7 8 9 6 5 4 4 3 2 1 1 1 2 1
4 3 5 5 6 8 12 17 17 20 20 18 16 14 11 9 8 7 6 6 5 4 5 3 1 1 1 2 3 2 2 3 3 3 4 6 7 8 7 7 6 5 3 2 0 1 1 1 0
5 3 3 5 6 8 7 8 13 14 17 18 17 13 11 9 7 6 7 7 8 9 7 5 4 4 3 3 3 2 1 1 1 2 3 4 5 7 7 8 7 6 5 4 3 3 3 2 1
5 5 3 4 4 4 3 2 5 8 14 15 14 11 9 7 7 7 8 10 10 9 8 8 7 6 5 4 2 1 1 2 2 2 3 3 4 5 6 8 8 7 6 5 5 4 4 4 2
4 4 3 3 1 1 3 4 2 4 9 9 9 8 6 4 5 6 7 8 8 7 7 7 8 8 7 6 5 4 3 3 2 2 3 2 3 5 6 7 7 8 6 7 6 5 5 4 4
2 6 8 7 5 3 4 3 3 2 4 4 5 5 3 2 3 4 6 6 6 6 6 6 7 7 7 7 7 7 6 6 6 5 4 4 4 3 4 5 6 7 7 7 7 6 6 5 5
6 7 6 7 6 3 2 5 1 4 7 7 7 6 5 4 3 3 4 4 3 3 3 3 4 4 5 5 6 6 6 6 6 6 5 5 4 4 4 4 5 6 7 8 7 6 6 6 6
1 7 5 3 4 3 3 2 3 5 5 5 5 6 6 5 4 4 4 4 4 4 3 2 1 1 2 2 3 3 4 3 4 5 5 5 4 5 5 6 5 5 7 7 7 6 6 6 7
2 1 6 6 0 1 1 2 2 4 4 5 5 5 5 6 6 6 6 6 7 7 6 6 5 3 3 2 2 2 3 3 4 5 4 4 5 5 7 7 7 6 5 6 6 5 7 7 7
3 2 6 5 1 2 2 3 5 9 9 7 5 4 4 4 5 6 6 7 8 8 7 6 6 6 6 6 6 5 5 5 5 4 5 5 5 5 7 7 7 7 7 6 6 6 7 7 7
6 5 5 3 3 3 2 4 3 8 7 5 4 4 4 4 4 5 6 7 7 6 6 7 7 7 8 8 8 8 8 8 7 6 7 7 6 6 6 6 7 7 7 7 6 7 8 8 8
4 2 3 2 2 2 1 4 3 3 3 2 0 1 3 5 6 6 7 6 5 5 6 7 8 9 10 10 10 10 10 9 8 9 9 8 8 7 7 7 7 7 7 7 6 8 8 8 9
Wind_Direction
169 163 151 156 97 41 298 300 21 28 51 57 75 89 91 77 150 166 144 148 145 152 157 156 156 156 154 152 150 149 148 147 146 143 141 139 137 137 137 137 138 138 137 136 136 136 137 137 136
172 166 154 133 69 18 309 329 9 30 122 115 80 76 81 69 85 113 127 149 147 151 154 155 156 157 156 156 155 155 154 153 151 149 148 147 146 146 145 145 145 146 146 147 148 149 150 151 151
194 180 141 79 70 193 303 325 335 352 63 96 86 58 77 111 118 127 145 146 144 149 153 157 157 159 160 160 160 160 159 157 156 155 155 154 154 153 153 153 154 155 156 157 159 160 161 164 168
152 101 59 66 240 231 264 308 332 355 14 46 96 70 66 121 129 135 141 146 146 151 154 159 160 161 163 164 164 164 163 162 161 161 161 161 161 161 161 162 163 164 166 168 170 172 175 179 185
95 85 58 358 259 243 226 319 343 341 352 49 87 88 52 56 122 135 145 151 151 152 157 162 163 165 166 167 168 168 168 167 167 167 168 169 169 170 171 173 175 176 179 182 185 188 191 195 201
59 75 79 257 263 252 219 190 125 4 18 61 85 96 74 128 133 146 152 156 156 156 159 165 167 169 170 171 172 173 173 173 173 174 175 177 179 181 183 186 189 192 195 198 201 204 206 209 214
140 121 205 231 262 263 235 185 151 128 43 34 105 95 111 150 150 152 154 155 157 159 163 167 170 173 174 175 177 177 178 179 180 182 183 185 188 192 195 199 202 206 209 212 214 216 218 220 222
155 113 275 252 263 259 228 176 151 129 130 99 113 137 156 169 155 153 154 156 158 163 169 170 170 172 175 179 182 183 185 186 188 189 191 194 198 202 206 210 214 217 219 221 223 224 226 228 229
134 89 241 237 240 263 236 185 147 118 125 141 172 167 162 156 155 157 158 160 165 171 175 174 172 172 173 178 188 189 191 194 195 197 200 201 207 211 216 221 224 227 229 229 229 230 232 234 237
122 182 235 230 243 252 232 195 154 140 137 162 161 146 149 157 165 169 170 173 176 178 180 180 178 176 175 185 191 193 196 199 200 202 205 205 207 214 221 228 233 234 235 235 234 234 235 238 240
196 219 255 267 261 243 235 228 166 147 179 193 176 169 167 173 175 177 178 180 180 179 181 182 183 181 182 191 188 195 202 203 207 208 209 208 210 219 230 233 241 239 236 236 238 236 232 232 232
269 273 274 277 292 292 254 235 178 178 203 192 182 173 176 180 177 180 178 176 170 173 183 183 184 185 190 195 192 195 201 204 209 214 211 207 209 217 223 222 229 224 224 223 228 228 228 232 234
278 284 297 298 320 316 306 285 247 219 200 177 183 180 182 184 183 177 163 151 150 154 163 172 187 193 195 200 200 198 204 208 211 209 209 206 206 213 212 212 217 216 211 214 222 229 232 235 237
284 304 303 301 308 307 310 305 306 250 170 169 181 191 191 186 165 122 104 104 111 112 99 99 95 222 223 208 201 199 198 200 199 202 204 202 202 199 201 209 214 217 211 212 214 221 228 232 233
309 325 320 303 296 286 332 320 282 233 164 172 187 188 146 99 81 80 78 78 80 77 69 62 67 323 294 248 207 199 188 180 187 193 192 189 187 185 188 194 209 224 218 214 218 234 232 242 244
339 342 306 287 279 274 243 265 279 196 157 168 168 139 104 83 77 78 77 77 78 72 55 34 14 351 316 297 249 215 194 174 186 186 184 177 178 180 174 182 199 212 194 191 225 255 280 280 279
343 287 279 292 285 264 193 238 293 127 136 129 119 110 97 79 70 70 72 76 77 76 57 36 13 0 331 314 303 266 231 196 182 177 181 174 174 174 163 174 189 173 147 168 230 152 200 262 291
262 269 287 304 330 25 76 80 38 59 88 89 82 86 84 78 71 72 68 70 72 82 87 63 21 339 349 322 309 300 304 292 231 186 186 176 171 167 158 162 163 143 132 125 152 224 222 226 260
250 286 320 324 347 38 53 60 53 56 61 62 59 63 70 66 56 57 61 73 80 73 82 82 69 289 329 302 297 291 281 273 259 222 194 179 170 164 160 159 156 142 146 176 203 218 277 286 288
306 353 344 331 359 38 69 72 66 60 60 58 53 48 46 51 49 47 49 54 58 69 84 101 57 298 243 244 251 241 231 256 250 234 203 186 173 168 167 161 162 160 159 164 167 172 189 271 293
337 347 333 333 10 27 79 67 66 65 65 64 60 52 46 50 54 53 52 54 57 45 35 33 16 0 338 287 268 293 322 307 332 266 231 212 186 175 168 171 170 175 173 187 199 194 186 212 266
312 300 334 348 18 336 55 107 74 70 61 60 60 52 42 36 45 52 55 55 54 47 38 34 32 29 6 348 342 305 248 250 251 252 248 239 216 198 185 181 182 186 186 191 202 194 188 180 223
270 307 6 353 13 352 6 112 82 71 61 63 68 69 55 36 54 64 66 66 60 50 42 35 33 31 23 27 21 20 5 327 322 335 329 302 262 232 214 200 193 196 195 197 199 201 208 198 201
306 23 21 35 55 10 324 108 25 40 108 110 106 106 113 121 91 82 77 73 65 56 50 43 38 28 18 24 24 24 12 358 1 358 342 326 314 293 266 235 215 207 202 204 204 205 211 214 217
48 62 21 359 2 300 2 92 152 148 152 158 157 163 175 183 159 122 101 94 100 91 76 61 50 27 15 22 19 16 10 5 2 349 335 330 327 322 311 281 241 222 213 211 206 205 216 217 222
318 120 141 219 248 279 11 107 188 172 176 183 177 176 180 183 177 163 167 174 182 181 173 162 135 349 351 8 356 354 354 350 339 334 332 332 325 314 315 316 284 252 229 220 210 212 220 222 226
27 297 174 152 326 66 199 129 187 196 205 203 193 183 180 178 180 187 195 199 205 206 207 199 194 218 254 270 283 293 309 315 313 315 320 318 318 321 334 331 321 304 274 247 228 225 227 225 229
110 116 63 68 50 321 282 208 200 198 219 219 208 192 190 184 191 202 212 220 221 216 212 202 196 208 225 235 243 245 246 251 260 277 290 295 300 310 320 326 325 322 311 287 258 246 241 234 236
14 23 69 92 144 144 306 289 238 200 208 201 204 204 212 230 242 251 253 248 243 228 213 206 211 217 228 234 238 241 242 241 241 249 258 264 272 285 296 302 306 307 305 302 285 265 252 242 242
47 11 110 111 333 82 113 291 291 187 181 153 91 337 308 301 296 294 296 299 295 265 244 234 232 231 234 235 237 241 244 243 242 245 248 250 256 264 269 276 284 290 295 299 297 291 279 258 247
Height
1512 1511 1511 1512 1514 1518 1514 1498 1486 1482 1482 1482 1481 1482 1487 1491 1496 1503 1499 1500 1505 1508 1512 1516 1519 1521 1522 1524 1525 1526 1527 1528 1530 1531 1532 1534 1535 1536 1538 1539 1540 1540 1541 1542 1543 1544 1544 1545 1546
1511 1510 1511 1512 1516 1526 1515 1497 1492 1487 1485 1483 1483 1485 1488 1492 1492 1494 1496 1501 1505 1507 1511 1515 1518 1520 1522 1523 1524 1526 1527 1529 1530 1531 1533 1534 1535 1537 1538 1539 1540 1541 1542 1543 1543 1544 1545 1546 1546
1510 1510 1511 1512 1518 1523 1514 1498 1494 1489 1485 1482 1485 1488 1490 1493 1493 1494 1497 1501 1505 1508 1511 1514 1517 1519 1521 1522 1524 1525 1527 1529 1530 1532 1533 1534 1535 1537 1538 1539 1540 1541 1542 1543 1543 1544 1545 1545 1546
1510 1510 1511 1515 1518 1509 1503 1496 1492 1489 1487 1485 1486 1490 1493 1495 1495 1497 1499 1503 1505 1508 1511 1514 1516 1519 1520 1522 1524 1525 1527 1528 1530 1532 1533 1534 1535 1537 1538 1539 1540 1540 1541 1542 1543 1543 1544 1545 1545
1508 1508 1514 1520 1514 1503 1496 1493 1493 1491 1489 1489 1488 1491 1494 1496 1497 1499 1501 1504 1505 1508 1511 1513 1516 1518 1520 1522 1523 1525 1527 1528 1530 1532 1533 1534 1535 1536 1537 1538 1539 1540 1540 1541 1542 1542 1543 1543 1544
1508 1508 1521 1525 1512 1498 1494 1489 1492 1494 1494 1493 1491 1493 1497 1497 1498 1500 1502 1505 1507 1508 1510 1513 1515 1517 1519 1521 1523 1525 1527 1528 1530 1531 1533 1534 1535 1536 1536 1537 1538 1539 1539 1540 1540 1541 1541 1542 1542
1507 1511 1518 1515 1509 1501 1492 1489 1489 1492 1494 1495 1493 1495 1498 1499 1500 1501 1503 1505 1507 1509 1510 1512 1514 1517 1519 1521 1523 1525 1526 1528 1529 1531 1532 1533 1534 1535 1536 1536 1537 1537 1538 1538 1539 1539 1540 1540 1541
1503 1508 1512 1511 1506 1499 1489 1487 1487 1489 1493 1495 1494 1494 1496 1499 1500 1502 1504 1505 1507 1508 1509 1511 1514 1516 1518 1521 1523 1524 1526 1527 1528 1530 1531 1532 1533 1533 1534 1535 1535 1536 1536 1537 1537 1537 1538 1538 1539
1501 1510 1516 1508 1502 1494 1487 1486 1487 1489 1491 1492 1491 1488 1489 1494 1498 1500 1501 1503 1505 1506 1508 1510 1512 1515 1517 1519 1521 1523 1524 1525 1526 1527 1528 1529 1530 1531 1532 1533 1533 1534 1534 1534 1535 1535 1535 1536 1536
1498 1511 1505 1494 1490 1487 1485 1484 1485 1488 1489 1490 1489 1486 1486 1489 1492 1494 1495 1497 1500 1503 1505 1508 1510 1513 1515 1517 1518 1520 1521 1522 1524 1525 1526 1527 1528 1529 1529 1530 1530 1531 1531 1531 1532 1532 1532 1533 1533
1495 1498 1490 1486 1484 1483 1482 1481 1481 1484 1488 1484 1481 1481 1482 1483 1486 1489 1491 1492 1496 1501 1504 1506 1509 1511 1513 1514 1516 1517 1519 1520 1521 1522 1524 1525 1526 1526 1527 1527 1527 1528 1528 1528 1529 1529 1529 1529 1530
1494 1489 1486 1482 1480 1479 1478 1477 1478 1478 1476 1476 1476 1476 1478 1479 1482 1486 1488 1491 1496 1501 1504 1507 1510 1511 1512 1513 1514 1515 1516 1517 1519 1520 1521 1522 1523 1524 1524 1524 1525 1525 1525 1525 1526 1526 1526 1526 1526
1490 1486 1482 1479 1477 1476 1475 1474 1473 1473 1471 1474 1476 1477 1477 1479 1481 1483 1487 1491 1495 1501 1505 1508 1511 1512 1512 1513 1513 1513 1514 1515 1517 1518 1519 1520 1520 1521 1521 1522 1522 1522 1522 1522 1522 1522 1522 1522 1522
1488 1485 1480 1476 1473 1472 1473 1472 1472 1470 1471 1473 1476 1476 1478 1481 1484 1487 1490 1494 1497 1500 1504 1507 1509 1510 1512 1512 1511 1511 1512 1513 1513 1515 1516 1517 1517 1518 1519 1519 1519 1519 1519 1519 1519 1518 1518 1518 1518
1488 1486 1481 1474 1472 1470 1472 1476 1470 1468 1470 1473 1475 1478 1481 1484 1487 1490 1492 1494 1496 1499 1501 1503 1505 1504 1505 1506 1508 1509 1508 1509 1510 1512 1513 1514 1515 1515 1516 1516 1516 1516 1516 1515 1515 1515 1515 1514 1514
1489 1492 1494 1476 1471 1468 1476 1485 1468 1468 1470 1473 1476 1480 1483 1486 1489 1492 1493 1493 1494 1496 1497 1498 1498 1499 1500 1502 1503 1506 1506 1507 1509 1510 1511 1512 1513 1514 1514 1513 1513 1513 1513 1512 1512 1511 1511 1510 1510
1499 1503 1497 1482 1467 1465 1472 1481 1471 1470 1471 1475 1479 1482 1485 1488 1490 1491 1492 1493 1494 1494 1496 1494 1493 1494 1496 1497 1499 1501 1504 1505 1506 1508 1509 1510 1510 1511 1511 1511 1510 1510 1510 1509 1508 1508 1507 1506 1506
1506 1501 1495 1487 1471 1467 1473 1480 1478 1479 1477 1481 1484 1486 1489 1490 1492 1491 1492 1493 1494 1494 1493 1492 1490 1489 1489 1492 1494 1496 1498 1501 1503 1505 1507 1507 1508 1508 1509 1509 1508 1507 1507 1505 1505 1504 1504 1503 1502
1489 1490 1491 1482 1472 1474 1482 1489 1491 1490 1490 1493 1494 1494 1494 1494 1495 1494 1494 1494 1493 1492 1491 1490 1489 1487 1489 1490 1492 1494 1496 1499 1501 1502 1503 1505 1505 1506 1507 1506 1505 1504 1503 1502 1501 1501 1500 1499 1498
1484 1489 1489 1481 1473 1477 1489 1499 1499 1498 1500 1502 1503 1504 1503 1500 1498 1497 1496 1495 1494 1493 1491 1490 1490 1489 1490 1492 1493 1495 1497 1498 1499 1500 1500 1501 1502 1503 1504 1504 1503 1502 1501 1499 1498 1497 1497 1496 1495
1484 1486 1486 1484 1479 1480 1486 1504 1505 1506 1504 1505 1507 1510 1510 1508 1504 1499 1497 1496 1494 1492 1492 1492 1491 1490 1491 1492 1493 1493 1495 1496 1497 1497 1498 1499 1499 1500 1500 1501 1500 1499 1498 1497 1495 1494 1494 1493 1492
1490 1477 1477 1479 1490 1501 1494 1515 1514 1512 1510 1509 1510 1511 1513 1511 1506 1501 1498 1495 1494 1495 1495 1494 1493 1493 1493 1493 1492 1493 1494 1494 1494 1495 1495 1495 1495 1496 1496 1496 1496 1496 1495 1494 1492 1492 1491 1490 1489
1481 1474 1476 1481 1489 1501 1501 1513 1520 1514 1517 1516 1513 1512 1513 1512 1508 1503 1500 1498 1497 1498 1497 1496 1496 1496 1494 1494 1493 1493 1493 1492 1491 1491 1491 1491 1491 1491 1491 1492 1492 1492 1492 1491 1489 1489 1488 1487 1485
1475 1479 1484 1493 1502 1515 1510 1515 1524 1519 1518 1517 1514 1512 1511 1511 1509 1505 1502 1500 1500 1500 1499 1499 1498 1497 1495 1494 1492 1491 1490 1488 1488 1487 1487 1486 1486 1486 1486 1486 1487 1487 1487 1487 1486 1485 1484 1484 1482
1480 1499 1519 1520 1528 1525 1513 1518 1524 1515 1512 1512 1510 1509 1508 1510 1508 1506 1503 1502 1502 1501 1500 1499 1498 1497 1495 1493 1491 1489 1487 1486 1484 1483 1482 1481 1481 1480 1480 1480 1480 1481 1481 1481 1481 1481 1480 1479 1478
1484 1497 1521 1530 1530 1525 1516 1522 1520 1513 1512 1511 1509 1509 1509 1509 1508 1506 1504 1503 1502 1501 1499 1498 1497 1495 1493 1491 1489 1487 1485 1483 1481 1480 1478 1476 1475 1474 1474 1473 1474 1474 1475 1475 1476 1475 1475 1475 1474
1488 1493 1495 1512 1514 1525 1524 1522 1519 1514 1512 1511 1510 1509 1509 1508 1507 1505 1503 1502 1500 1498 1497 1495 1493 1492 1490 1488 1486 1484 1482 1479 1477 1475 1473 1472 1470 1468 1467 1467 1467 1467 1468 1468 1469 1469 1470 1469 1469
1482 1487 1501 1513 1525 1530 1523 1522 1523 1517 1513 1510 1510 1509 1508 1507 1506 1503 1501 1499 1497 1494 1492 1490 1489 1488 1486 1484 1482 1479 1477 1475 1473 1471 1469 1467 1465 1463 1462 1461 1460 1460 1461 1462 1462 1462 1463 1463 1463
1490 1493 1502 1513 1518 1528 1532 1528 1510 1510 1509 1510 1510 1509 1508 1507 1504 1502 1499 1496 1493 1490 1488 1487 1485 1483 1481 1479 1477 1475 1472 1470 1468 1466 1464 1462 1460 1458 1457 1455 1454 1454 1454 1454 1455 1455 1456 1456 1457
1490 1494 1502 1517 1519 1522 1531 1530 1508 1508 1509 1510 1510 1510 1508 1506 1503 1500 1496 1493 1490 1487 1485 1483 1481 1479 1476 1474 1471 1469 1466 1463 1461 1460 1458 1456 1455 1453 1451 1450 1449 1448 1447 1447 1447 1448 1448 1449 1449